Morrisville, NC

7:58 PM EST on January 21, 2017 (GMT -0500)
Raleigh-Durham International Airport

Weather History for KRDU - December, 2014

Change the Weather History Date:

Monday, December 8, 2014

  Actual Average Record
Temperature  
Mean Temperature 40 °F 45 °F  
Max Temperature 45 °F 56 °F 78 °F (1978)
Min Temperature 34 °F 35 °F 13 °F (1977)
Degree Days  
Heating Degree Days 25 20  
Month to date heating degree days 131 151  
Since 1 July heating degree days 795 732  
Cooling Degree Days 0 0  
Month to date cooling degree days 0 0  
Year to date cooling degree days 1657 1728  
Moisture  
Dew Point 28 °F    
Average Humidity 72    
Maximum Humidity 92    
Minimum Humidity 52    
Precipitation  
Precipitation 0.13 in 0.10 in 2.07 in (1920)
Month to date precipitation 0.29 0.81  
Year to date precipitation 50.57 41.08  
Snow  
Snow 0.00 in 0.10 in 0.80 in (1989)
Month to date snowfall 0.0 0.1  
Since 1 July snowfall T 0.2  
Snow Depth 0.00 in    
Sea Level Pressure  
Sea Level Pressure 30.34 in    
Wind  
Wind Speed 9 mph (NNE)    
Max Wind Speed 17 mph    
Max Gust Speed 24 mph    
Visibility 10 miles    
Events Rain    
T = Trace of Precipitation, MM = Missing Value Source: NWS Daily Summary

Daily Weather History Graph

Daily Weather History Graph

Search for Another Location

Airport or City:

Trip Planner

Search our weather history database for the weather conditions in past years. The results will help you decide how hot, cold, wet, or windy it might be!

Date:

Astronomy

Dec. 08, 2014 Rise Set
Actual Time 7:12 AM EST 5:01 PM EST
Civil Twilight 6:44 AM EST 5:29 PM EST
Nautical Twilight 6:12 AM EST 6:01 PM EST
Astronomical Twilight 5:41 AM EST 6:32 PM EST
Moon 7:20 PM EST (12/8) 8:44 AM EST (12/8)
Length of Visible Light 10h 44m
Length of Day
9h 48m
Waning Gibbous, 95% of the Moon is Illuminated
Dec 8
Waning Gibbous
Dec 14
Last Quarter
Dec 21
New
Dec 28
First Quarter
Jan 4
Full

Hourly Weather History & Observations

Time (EST) Temp. Windchill Dew Point Humidity Pressure Visibility Wind Dir Wind Speed Gust Speed Precip Events Conditions
12:51 AM 35.1 °F 31.0 °F 21.9 °F 59% 30.44 in 10.0 mi NNE 4.6 mph - N/A   Mostly Cloudy
1:51 AM 36.0 °F 31.1 °F 21.9 °F 57% 30.44 in 10.0 mi NNE 5.8 mph - N/A   Overcast
2:51 AM 37.0 °F 30.4 °F 21.0 °F 52% 30.43 in 10.0 mi NNE 9.2 mph - N/A   Overcast
3:51 AM 37.0 °F 31.6 °F 21.9 °F 54% 30.41 in 10.0 mi North 6.9 mph - N/A   Overcast
4:51 AM 37.0 °F 31.0 °F 21.9 °F 54% 30.41 in 10.0 mi North 8.1 mph - N/A   Overcast
5:51 AM 37.0 °F 32.4 °F 23.0 °F 57% 30.43 in 10.0 mi NNE 5.8 mph - N/A   Overcast
6:51 AM 36.0 °F 28.5 °F 23.0 °F 59% 30.43 in 10.0 mi NNE 10.4 mph - N/A   Mostly Cloudy
7:51 AM 36.0 °F 30.3 °F 23.0 °F 59% 30.42 in 10.0 mi NNE 6.9 mph - N/A   Mostly Cloudy
8:51 AM 37.0 °F 30.4 °F 24.1 °F 59% 30.43 in 10.0 mi NNE 9.2 mph 17.3 mph N/A   Mostly Cloudy
9:51 AM 41.0 °F 32.5 °F 26.1 °F 55% 30.44 in 10.0 mi NNE 17.3 mph 24.2 mph N/A   Mostly Cloudy
10:51 AM 41.0 °F 35.2 °F 27.0 °F 57% 30.41 in 10.0 mi NE 9.2 mph 17.3 mph N/A   Mostly Cloudy
11:51 AM 44.1 °F 38.6 °F 28.9 °F 55% 30.38 in 10.0 mi NE 10.4 mph 17.3 mph N/A   Overcast
12:51 PM 44.1 °F 39.0 °F 28.9 °F 55% 30.36 in 10.0 mi NE 9.2 mph - N/A   Mostly Cloudy
1:15 PM 44.6 °F 39.2 °F 28.4 °F 53% 30.34 in 10.0 mi NE 10.4 mph - N/A   Overcast
1:51 PM 43.0 °F 36.0 °F 28.9 °F 58% 30.32 in 10.0 mi NE 13.8 mph 20.7 mph N/A   Overcast
2:51 PM 43.0 °F 38.2 °F 30.0 °F 60% 30.32 in 10.0 mi NNE 8.1 mph - N/A   Overcast
3:51 PM 42.1 °F 37.1 °F 30.9 °F 65% 30.32 in 10.0 mi NNE 8.1 mph 16.1 mph N/A   Overcast
4:51 PM 42.1 °F 37.1 °F 30.9 °F 65% 30.30 in 10.0 mi North 8.1 mph - N/A   Overcast
5:51 PM 41.0 °F 35.2 °F 30.9 °F 67% 30.30 in 10.0 mi NNE 9.2 mph 17.3 mph N/A   Overcast
6:51 PM 39.9 °F 32.9 °F 32.0 °F 73% 30.27 in 10.0 mi NE 11.5 mph - N/A   Overcast
7:51 PM 39.9 °F 34.5 °F 33.1 °F 77% 30.24 in 10.0 mi NE 8.1 mph - N/A   Overcast
8:51 PM 39.0 °F 36.8 °F 34.0 °F 82% 30.24 in 10.0 mi Variable 3.5 mph - 0.00 in Rain Light Rain
9:20 PM 39.2 °F 37.0 °F 35.6 °F 87% 30.22 in 6.0 mi Variable 3.5 mph - 0.02 in Rain Light Rain
9:51 PM 37.9 °F 34.4 °F 35.1 °F 89% 30.21 in 4.0 mi NNE 4.6 mph - 0.04 in Rain Rain
10:51 PM 37.9 °F 32.1 °F 35.1 °F 89% 30.18 in 5.0 mi NNE 8.1 mph - 0.06 in Rain Light Rain
11:51 PM 37.0 °F 31.0 °F 34.0 °F 89% 30.15 in 10.0 mi North 8.1 mph - 0.03 in Rain Light Rain